DW8835 La Escala ES current weather conditions

sailwx.info

Wind from 319 at 0 knots gusting 1

Air temperature 14.4° C
Dewpoint 9.7° C

Last reported at 2015-Mar-30 21:45 UTC.
Time now 2015-Mar-30 23:02 UTC

Location: N 42°07' E 003°08'.
View on Google Maps.

See reports from other nearby stations

  
Tides and Currents Weather Stations Pressure Air Temp Water Temp Dewpoint Dewpoint Depression Visibility Wind Speed Wind Dir Waves Ship Positions
date/time (UTC)wind fromknots sea level pressurealtimeterstation pressurevisibilityair tempwater tempwave heightnotes
2015-Mar-30 21:45 319 0 gusting 1 14.4
2015-Mar-30 21:35 316 14.4
2015-Mar-30 21:25 244 13.9
2015-Mar-30 21:15 230 0 gusting 3 14.4
2015-Mar-30 21:05 234 0 gusting 4 14.4
2015-Mar-30 20:55 222 0 gusting 3 14.4
2015-Mar-30 20:45 178 14.4
2015-Mar-30 20:35 178 0 gusting 4 14.4
2015-Mar-30 20:25 146 0 gusting 2 15.0
2015-Mar-30 20:15 144 1 gusting 2 15.0
2015-Mar-30 20:05 131 0 gusting 4 15.6
2015-Mar-30 19:55 049 1 gusting 2 15.6
2015-Mar-30 19:45 033 0 gusting 1 15.6
2015-Mar-30 19:35 015 15.6
2015-Mar-30 19:25 015 15.6
2015-Mar-30 19:15 015 15.6
2015-Mar-30 19:05 015 16.1
2015-Mar-30 18:55 015 0 gusting 3 16.1
2015-Mar-30 18:45 005 0 gusting 3 16.7
2015-Mar-30 18:35 332 2 gusting 3 17.2
2015-Mar-30 18:24 189 17.2
2015-Mar-30 18:15 189 17.8
2015-Mar-30 18:05 189 17.8
2015-Mar-30 17:55 189 17.8
2015-Mar-30 17:44 189 17.8
2015-Mar-30 17:35 187 1 gusting 3 17.8
2015-Mar-30 17:25 187 1 gusting 6 17.8
2015-Mar-30 17:15 209 4 gusting 6 17.8
2015-Mar-30 17:05 180 5 gusting 7 18.3
2015-Mar-30 16:55 183 3 gusting 5 18.3
2015-Mar-30 16:45 155 3 gusting 5 18.9
2015-Mar-30 16:35 192 1 gusting 7 18.9
2015-Mar-30 16:25 144 4 gusting 6 18.9
2015-Mar-30 16:15 126 2 gusting 6 19.4
2015-Mar-30 16:05 149 2 gusting 4 19.4
2015-Mar-30 15:55 099 3 gusting 6 19.4
2015-Mar-30 15:45 100 2 gusting 4 20.0
2015-Mar-30 15:35 128 1 gusting 6 21.1
2015-Mar-30 15:25 217 1 gusting 4 21.1
2015-Mar-30 15:14 132 1 gusting 6 21.1
2015-Mar-30 15:05 119 1 gusting 6 22.2
2015-Mar-30 14:55 150 4 gusting 6 22.2
2015-Mar-30 14:45 117 3 gusting 8 21.7
2015-Mar-30 14:34 115 4 gusting 8 21.7
2015-Mar-30 14:25 142 5 gusting 12 21.1
2015-Mar-30 14:15 150 6 gusting 12 21.1
2015-Mar-30 14:05 119 6 gusting 8 20.6
2015-Mar-30 13:55 132 4 gusting 7 20.0
2015-Mar-30 13:45 114 4 gusting 8 20.0
2015-Mar-30 13:35 097 1 gusting 7 20.0
2015-Mar-30 13:25 067 4 gusting 6 21.1
2015-Mar-30 13:15 084 2 gusting 4 21.1
2015-Mar-30 13:04 080 3 gusting 6 21.1
2015-Mar-30 12:55 084 2 gusting 4 19.4
2015-Mar-30 12:44 088 3 gusting 6 17.8
2015-Mar-30 12:35 085 2 gusting 6 18.3
2015-Mar-30 12:25 104 3 gusting 6 17.2
2015-Mar-30 12:15 077 2 gusting 6 18.3
2015-Mar-30 12:05 086 3 gusting 6 18.3
2015-Mar-30 11:55 093 4 gusting 7 17.8
2015-Mar-30 11:44 088 3 gusting 7 18.3
2015-Mar-30 11:35 096 4 gusting 6 17.8
2015-Mar-30 11:25 129 2 gusting 4 20.0
2015-Mar-30 11:15 285 5 gusting 7 20.6
2015-Mar-30 11:05 182 3 gusting 7 20.0
2015-Mar-30 10:54 242 2 gusting 6 19.4
2015-Mar-30 10:44 225 2 gusting 6 19.4
2015-Mar-30 10:35 266 2 gusting 6 19.4
2015-Mar-30 10:25 257 2 gusting 6 18.9
2015-Mar-30 10:15 214 2 gusting 6 18.3
2015-Mar-30 10:04 215 4 gusting 6 18.3
2015-Mar-30 09:55 233 4 gusting 5 17.8
2015-Mar-30 09:45 273 3 gusting 4 17.2
2015-Mar-30 09:35 275 3 gusting 6 16.7
2015-Mar-30 09:24 291 2 gusting 4 16.7
2015-Mar-30 09:15 268 1 gusting 2 16.1
2015-Mar-30 09:05 234 0 gusting 5 15.0
2015-Mar-30 08:55 211 3 gusting 6 14.4
2015-Mar-30 08:45 196 4 gusting 6 13.9
2015-Mar-30 08:35 184 0 gusting 5 13.3
2015-Mar-30 08:25 202 1 gusting 5 12.8
2015-Mar-30 08:15 186 1 gusting 6 12.8
2015-Mar-30 08:04 231 1 gusting 3 12.2
2015-Mar-30 07:55 209 2 gusting 3 12.2
2015-Mar-30 07:44 196 0 gusting 2 12.2
2015-Mar-30 07:35 184 11.7
2015-Mar-30 07:25 181 0 gusting 3 11.7
2015-Mar-30 07:14 182 1 gusting 3 11.7
2015-Mar-30 07:04 199 0 gusting 2 11.1
2015-Mar-30 06:55 200 11.1
2015-Mar-30 06:44 200 11.1
2015-Mar-30 06:35 200 0 gusting 2 11.1
2015-Mar-30 06:24 200 1 gusting 3 11.1
2015-Mar-30 06:15 174 0 gusting 4 10.6
2015-Mar-30 06:05 171 3 gusting 4 10.6
2015-Mar-30 05:55 194 2 gusting 4 10.6
2015-Mar-30 05:44 189 10.6
2015-Mar-30 05:34 209 10.6
2015-Mar-30 05:25 208 2 gusting 4 10.6
2015-Mar-30 05:14 223 0 gusting 2 10.6
2015-Mar-30 05:05 219 10.6
2015-Mar-30 04:55 218 0 gusting 2 10.6
2015-Mar-30 04:44 216 0 gusting 2 10.6
2015-Mar-30 04:35 216 10.6
2015-Mar-30 04:24 217 10.6
2015-Mar-30 04:15 217 11.1
2015-Mar-30 04:05 215 11.1
2015-Mar-30 03:54 215 11.1
2015-Mar-30 03:45 212 11.1
2015-Mar-30 03:34 205 0 gusting 3 11.1
2015-Mar-30 03:24 198 2 gusting 6 11.1
2015-Mar-30 03:15 190 2 gusting 6 11.1
2015-Mar-30 03:05 182 0 gusting 4 11.1
2015-Mar-30 02:55 202 1 gusting 4 11.1
2015-Mar-30 02:44 186 2 gusting 8 11.1
2015-Mar-30 02:35 198 2 gusting 6 11.1
2015-Mar-30 02:25 197 0 gusting 3 11.1
2015-Mar-30 02:15 192 11.1
2015-Mar-30 02:05 194 0 gusting 3 11.1
2015-Mar-30 01:54 192 1 gusting 4 11.1
2015-Mar-30 01:44 192 1 gusting 4 11.7
2015-Mar-30 01:35 174 11.7
2015-Mar-30 01:25 026 11.7
2015-Mar-30 01:15 024 11.7
2015-Mar-30 01:04 023 11.7
2015-Mar-30 00:55 042 0 gusting 5 11.7
2015-Mar-30 00:44 242 11.7
2015-Mar-30 00:35 236 1 gusting 6 11.7
2015-Mar-30 00:25 210 2 gusting 6 12.2
2015-Mar-30 00:15 205 2 gusting 6 12.2
2015-Mar-30 00:05 153 0 gusting 1 12.8
2015-Mar-29 23:54 151 12.8
2015-Mar-29 23:45 143 1 gusting 2 12.8
2015-Mar-29 23:35 139 13.3
2015-Mar-29 23:25 139 13.3
2015-Mar-29 23:14 139 13.3
2015-Mar-29 23:05 139 13.3
2015-Mar-29 22:54 139 13.3
2015-Mar-29 22:45 145 13.3
2015-Mar-29 22:34 145 13.3
2015-Mar-29 22:24 145 13.3
2015-Mar-29 22:15 145 0 gusting 2 13.3
2015-Mar-29 22:05 202 13.3
2015-Mar-29 21:54 202 0 gusting 4 13.9
2015-Mar-29 21:45 183 2 gusting 3 13.9
2015-Mar-29 21:35 180 13.9
2015-Mar-29 21:24 180 1 gusting 3 13.9
2015-Mar-29 21:15 022 1 gusting 2 13.9
2015-Mar-29 21:05 022 13.9
2015-Mar-29 20:55 019 1 gusting 3 13.9
2015-Mar-29 20:44 248 1 gusting 4 13.9
2015-Mar-29 20:34 277 3 gusting 6 14.4
2015-Mar-29 20:25 267 3 gusting 6 14.4
2015-Mar-29 20:14 312 1 gusting 3 15.0
2015-Mar-29 20:04 024 15.0
2015-Mar-29 19:55 024 15.0
2015-Mar-29 19:44 024 15.6
2015-Mar-29 19:34 360 15.6
2015-Mar-29 19:24 321 15.6
2015-Mar-29 19:14 242 15.6
2015-Mar-29 19:05 242 15.6
2015-Mar-29 18:54 242 15.6
2015-Mar-29 18:44 242 0 gusting 1 15.6
2015-Mar-29 18:35 242 16.1
2015-Mar-29 18:24 242 0 gusting 1 16.1
2015-Mar-29 18:15 242 16.1
2015-Mar-29 18:04 243 1 gusting 2 16.7
2015-Mar-29 17:54 244 16.7
2015-Mar-29 17:44 248 16.7
2015-Mar-29 17:35 249 0 gusting 6 17.2
2015-Mar-29 17:24 201 0 gusting 3 17.2
2015-Mar-29 17:14 194 0 gusting 4 17.2
2015-Mar-29 17:04 185 0 gusting 5 17.8
2015-Mar-29 16:54 173 3 gusting 5 17.8
2015-Mar-29 16:44 186 2 gusting 7 17.8
2015-Mar-29 16:34 172 3 gusting 7 17.8
2015-Mar-29 16:24 137 2 gusting 5 18.3
2015-Mar-29 16:14 150 1 gusting 4 18.3
2015-Mar-29 16:05 116 1 gusting 5 18.3
2015-Mar-29 15:54 137 1 gusting 3 18.3
2015-Mar-29 15:45 115 3 gusting 6 18.3
2015-Mar-29 15:34 126 1 gusting 6 18.3
2015-Mar-29 15:24 134 5 gusting 8 18.3
2015-Mar-29 15:14 143 2 gusting 6 18.3
2015-Mar-29 15:04 137 4 gusting 7 18.3
2015-Mar-29 14:54 145 4 gusting 7 18.3
2015-Mar-29 14:44 149 1 gusting 9 18.3
2015-Mar-29 14:34 139 5 gusting 7 18.3
2015-Mar-29 14:25 147 4 gusting 6 18.3
2015-Mar-29 14:04 127 3 gusting 8 18.9
2015-Mar-29 13:54 117 2 gusting 8 18.9
2015-Mar-29 13:14 132 3 gusting 7 17.8
2015-Mar-29 13:04 072 3 gusting 7 17.8
2015-Mar-29 12:54 103 5 gusting 7 18.9
2015-Mar-29 12:44 213 0 gusting 6 19.4
2015-Mar-29 12:34 268 4 gusting 6 18.9
2015-Mar-29 12:24 291 3 gusting 7 19.4
2015-Mar-29 12:14 186 4 gusting 7 18.9
2015-Mar-29 12:04 160 3 gusting 6 18.9
2015-Mar-29 11:54 285 4 gusting 7 18.3
2015-Mar-29 11:44 286 4 gusting 8 18.3
2015-Mar-29 11:34 253 5 gusting 7 18.3
2015-Mar-29 11:24 263 2 gusting 6 18.3
2015-Mar-29 11:14 261 2 gusting 6 18.3
2015-Mar-29 11:04 159 1 gusting 3 17.8
2015-Mar-29 10:54 094 0 gusting 4 17.2
2015-Mar-29 10:44 091 1 gusting 6 17.8
2015-Mar-29 10:34 069 0 gusting 2 17.8
2015-Mar-29 10:24 252 18.3
2015-Mar-29 10:14 306 2 gusting 6 18.3
2015-Mar-29 10:04 293 3 gusting 5 18.3
2015-Mar-29 09:54 302 3 gusting 6 17.8
2015-Mar-29 09:44 236 3 gusting 11 17.2
2015-Mar-29 09:34 180 4 gusting 10 16.7
2015-Mar-29 09:24 196 4 gusting 9 16.1
2015-Mar-29 09:14 244 6 gusting 8 15.6
2015-Mar-29 09:04 170 5 gusting 10 15.6
2015-Mar-29 08:54 211 5 gusting 8 15.6
2015-Mar-29 08:44 209 3 gusting 6 15.6
2015-Mar-29 08:34 251 4 gusting 8 14.4
2015-Mar-29 08:24 257 3 gusting 7 13.9
2015-Mar-29 08:14 242 4 gusting 6 13.3
2015-Mar-29 08:04 242 2 gusting 6 12.8
2015-Mar-29 07:54 199 2 gusting 4 12.2
2015-Mar-29 07:44 252 1 gusting 4 12.2
2015-Mar-29 07:34 186 0 gusting 4 11.7
2015-Mar-29 07:24 188 0 gusting 4 11.7
2015-Mar-29 07:14 182 1 gusting 3 11.7
2015-Mar-29 07:04 186 1 gusting 4 11.1
2015-Mar-29 06:55 121 10.6
2015-Mar-29 06:44 121 0 gusting 1 10.0
2015-Mar-29 06:34 121 0 gusting 1 9.4
2015-Mar-29 06:24 122 0 gusting 2 9.4
2015-Mar-29 06:14 120 9.4
2015-Mar-29 06:04 119 0 gusting 1 9.4
2015-Mar-29 05:54 119 9.4
2015-Mar-29 05:44 156 0 gusting 4 8.9
2015-Mar-29 05:34 170 0 gusting 5 8.9
2015-Mar-29 05:24 219 0 gusting 3 8.9
2015-Mar-29 05:14 280 8.9
2015-Mar-29 05:04 280 0 gusting 2 8.9
2015-Mar-29 04:54 280 0 gusting 1 9.4
2015-Mar-29 04:44 279 9.4
2015-Mar-29 04:34 281 0 gusting 3 9.4
2015-Mar-29 04:24 331 0 gusting 3 9.4
2015-Mar-29 04:14 233 0 gusting 6 9.4
2015-Mar-29 04:04 271 2 gusting 6 10.0
2015-Mar-29 03:54 209 1 gusting 6 10.0
2015-Mar-29 03:44 201 4 gusting 6 10.0
2015-Mar-29 03:34 186 3 gusting 6 10.6
2015-Mar-29 03:24 178 5 gusting 7 10.6
2015-Mar-29 03:14 198 4 gusting 6 10.6
2015-Mar-29 03:04 156 3 gusting 6 10.6
2015-Mar-29 02:54 178 1 gusting 4 10.6
2015-Mar-29 02:44 179 0 gusting 2 10.6
2015-Mar-29 02:34 179 0 gusting 3 10.6
2015-Mar-29 02:24 350 11.1
2015-Mar-29 02:14 350 11.1
2015-Mar-29 02:04 350 0 gusting 2 11.1
2015-Mar-29 01:54 350 1 gusting 3 11.1
2015-Mar-29 01:44 349 1 gusting 4 11.1
2015-Mar-29 01:34 323 4 gusting 6 11.1
2015-Mar-29 01:24 320 3 gusting 6 11.1
2015-Mar-29 01:14 190 11.7
2015-Mar-29 01:04 191 0 gusting 1 11.7
2015-Mar-29 00:54 190 11.7
2015-Mar-29 00:44 183 4 gusting 6 12.2
2015-Mar-29 00:34 275 2 gusting 6 12.8
2015-Mar-29 00:24 259 3 gusting 5 12.8
2015-Mar-29 00:14 261 2 gusting 5 13.3
2015-Mar-29 00:04 248 1 gusting 5 13.3
2015-Mar-28 23:54 287 2 gusting 3 13.9
2015-Mar-28 23:44 340 0 gusting 4 13.9
2015-Mar-28 23:34 322 3 gusting 6 14.4
2015-Mar-28 23:24 323 4 gusting 7 14.4
2015-Mar-28 23:14 350 6 gusting 14 15.0
2015-Mar-28 23:04 342 6 gusting 12 15.0